Dewpoint
49 49 48 48 48 49 49 48 49 48 48 48 49 49 49 49 51 52 52 52 47 45 45 47 45 41 42 40 37 40 38 37 31 27 24 25 23 29 27 29 30 29 24 22 21 14 14 28 31 28 32 33 37 37
48 48 48 48 48 48 48 48 49 50 48 48 48 48 48 49 50 51 51 54 51 46 45 48 48 47 46 41 43 40 38 38 37 31 24 31 30 32 25 24 32 26 26 25 24 24 28 30 33 34 35 33 37 38
48 48 48 48 48 48 48 48 48 49 47 48 49 49 49 50 51 52 52 49 46 43 44 45 45 48 48 47 45 39 39 41 38 37 32 28 24 30 27 29 28 32 32 28 29 29 32 33 33 36 38 37 39 40
48 48 48 48 48 48 48 48 47 47 49 48 49 49 50 50 51 51 50 49 43 40 36 40 46 46 48 49 47 44 44 42 40 38 33 33 25 33 25 30 29 32 34 31 31 33 34 35 38 38 39 41 40 40
48 47 48 48 48 48 47 47 47 48 48 49 49 50 49 51 50 50 49 49 49 40 36 37 44 44 47 48 47 46 43 42 39 34 31 31 29 33 34 32 31 35 32 30 29 31 31 31 33 40 40 41 41 39
48 48 48 47 47 47 47 47 47 48 48 48 49 49 49 49 49 40 38 47 50 46 41 35 41 42 45 47 47 46 46 42 40 37 32 33 36 34 33 31 35 35 37 34 32 34 35 35 40 40 41 41 41 35
47 47 47 47 47 47 46 47 47 48 48 48 49 49 49 48 49 41 35 45 48 45 39 36 35 39 42 44 43 44 44 42 41 37 33 31 36 37 33 29 33 36 38 39 40 40 37 39 39 41 41 37 28 23
46 46 46 47 47 47 47 46 47 48 49 48 48 48 49 49 49 47 48 48 47 42 39 33 33 35 42 37 37 42 38 41 40 37 37 34 37 35 34 37 38 39 39 39 39 40 39 40 33 25 25 24 24 26
45 45 46 46 46 47 47 46 46 48 49 48 47 48 48 47 46 47 48 47 47 43 36 35 32 31 40 38 37 38 40 34 39 36 36 38 33 34 36 35 37 38 38 38 39 39 36 27 23 25 26 30 31 31
45 45 45 46 46 46 47 46 47 48 48 47 46 42 40 45 47 47 44 40 39 39 40 34 37 35 42 34 34 35 34 35 35 36 39 34 35 35 34 34 35 36 38 39 35 30 28 30 31 33 33 32 32 33
45 45 46 46 46 47 47 47 47 47 47 44 41 39 45 46 43 38 35 34 37 36 38 37 35 35 40 36 35 35 33 33 32 31 35 33 32 31 27 30 33 34 34 33 33 34 35 35 34 34 34 32 33 33
45 44 44 44 45 46 46 46 46 45 43 43 44 43 40 38 36 34 33 34 35 32 35 36 36 39 37 38 36 35 33 33 31 34 33 30 29 25 30 32 35 35 33 33 35 35 36 36 36 35 33 31 29 27
44 44 44 44 44 45 44 45 45 45 43 41 38 34 37 34 33 31 31 33 33 33 34 34 34 34 36 37 34 33 33 32 33 32 30 30 30 36 37 33 29 32 33 33 33 34 31 26 26 27 27 28 27 28
44 43 43 44 44 44 44 44 43 42 40 36 35 33 32 31 30 30 31 32 32 32 33 33 33 33 33 33 32 32 31 31 29 24 21 32 35 35 27 28 28 29 31 32 27 26 27 27 27 27 26 26 25 26
44 43 42 43 44 44 43 42 41 39 36 31 31 27 28 30 31 32 32 33 33 34 33 33 33 34 32 31 31 29 25 21 20 18 30 33 35 34 24 26 28 29 26 27 26 26 25 24 24 25 25 24 26 26
42 41 41 43 44 43 43 40 36 34 30 30 31 29 31 31 31 32 32 32 35 33 33 33 32 30 29 29 26 22 21 19 26 31 33 34 32 29 31 28 29 31 31 31 29 28 27 24 24 26 26 24 22 22
41 39 42 43 43 40 41 36 32 30 29 30 30 32 31 32 32 32 33 34 36 33 31 29 25 24 28 24 24 30 26 30 32 33 33 33 33 28 32 32 30 29 30 30 29 28 27 24 23 25 26 28 26 25
37 38 42 42 41 38 35 32 28 28 30 31 30 31 32 32 32 32 32 33 31 32 30 26 30 20 17 18 19 29 31 28 29 30 30 30 29 29 28 28 27 27 28 27 26 27 25 25 26 27 27 28 26 26
39 40 41 41 39 32 30 31 30 25 29 30 30 30 31 31 31 32 32 33 29 26 26 21 19 19 20 23 23 32 31 31 27 27 27 29 28 29 30 29 29 28 28 28 28 27 27 28 27 26 26 26 26 26
40 41 40 39 38 30 28 28 31 27 26 28 30 29 29 29 30 31 32 33 29 25 22 20 21 22 23 22 23 24 31 32 25 21 23 26 29 30 29 28 28 28 27 27 26 25 24 24 23 23 22 22 22 23
36 38 37 34 31 30 29 28 28 29 30 28 29 29 27 29 29 29 30 31 31 29 23 22 15 21 29 28 25 25 29 27 25 24 23 27 27 26 25 25 24 24 23 21 21 21 20 20 19 17 14 15 17 19
35 37 29 31 28 31 28 31 30 29 28 29 28 28 26 25 26 28 29 28 28 28 28 25 25 29 30 28 28 30 29 29 28 27 25 24 24 23 20 19 19 17 18 17 17 11 10 14 13 12 10 11 15 16
36 32 28 25 19 18 24 32 28 25 23 23 28 26 25 25 26 28 25 28 28 31 31 31 29 29 27 27 26 26 26 22 21 21 21 22 21 19 16 14 12 9 10 12 13 10 8 6 7 6 8 8 8 8
33 27 21 21 20 14 27 25 28 27 25 18 16 19 20 23 26 24 22 24 28 29 29 29 28 26 25 24 21 20 22 22 21 19 21 21 18 17 15 13 10 9 7 8 7 3 3 -1 1 4 3 4 4 5
17 23 22 22 25 13 20 20 22 23 20 11 21 12 19 18 20 19 20 21 24 25 26 28 27 26 21 20 20 18 19 21 19 14 13 13 10 9 9 10 7 8 6 -0 -1 -1 -1 -1 -1 -1 1 1 3 5
13 19 22 21 22 21 10 11 15 21 19 14 14 17 13 13 10 13 19 20 24 23 23 24 23 20 19 19 17 15 13 15 16 11 10 9 6 -2 -4 -5 -3 -2 3 -7 -7 -7 -4 -3 -3 -5 -1 1 3 0
14 14 21 27 25 23 17 15 18 21 18 19 18 19 20 13 15 18 22 21 21 21 23 23 22 19 16 12 10 11 11 12 11 10 10 8 7 5 -3 -10 -8 -1 0 -3 -11 -12 -8 -4 -3 -3 0 1 -6 -2
19 25 17 15 23 23 22 16 15 19 23 24 21 18 17 16 13 17 19 21 19 18 16 14 14 12 9 8 7 6 9 9 8 7 5 3 1 -6 -8 -10 -9 3 -8 -14 -16 -10 -10 -4 -1 1 -0 -4 -11 -14
22 24 24 17 17 20 20 18 19 23 26 24 20 16 13 12 11 10 15 18 17 14 10 9 8 8 7 6 2 -0 -3 -6 -8 -10 -14 -17 -16 -10 -11 -17 -16 -14 -15 -16 -3 2 2 3 -1 -10 -14 -12 -9 -9
20 18 16 9 17 15 22 19 20 21 21 19 18 15 11 8 10 12 12 12 9 5 4 2 1 2 -4 -5 -10 -8 -12 -17 -15 -12 -16 -18 -12 -11 -19 -17 -14 -12 -13 -17 -15 -14 -6 -14 -12 -17 -18 -18 -20 -21
26 25 22 20 16 22 21 26 27 27 25 16 16 11 6 3 6 8 5 4 4 3 -0 -8 -10 -19 -14 -16 -17 -16 -12 -14 -18 -14 -14 -15 -16 -20 -20 -16 -17 -18 -23 -25 -26 -24 -22 -23 -26 -26 -24 -23 -22 -24
23 19 13 13 13 14 14 14 9 12 16 19 10 5 -4 -3 -7 1 1 -4 -4 -8 -9 -19 -15 -11 -14 -16 -19 -20 -12 -17 -17 -18 -17 -15 -15 -18 -18 -17 -23 -26 -26 -26 -26 -26 -25 -26 -26 -27 -27 -27 -27 -26
4 5 6 7 13 12 3 -1 -5 3 10 11 -1 -3 -6 -4 -5 -2 1 -5 -5 -8 -12 -15 -15 -15 -14 -16 -15 -17 -14 -19 -19 -6 -2 1 0 -3 -5 -15 -20 -26 -26 -26 -28 -29 -26 -26 -26 -28 -28 -29 -29 -28
Lifted_Index
5 5 5 5 5 5 5 5 5 4 3 2 1 1 1 2 2 1 1 0 0 0 0 0 0 0 0 1 1 1 2 2 2 2 3 3 4 5 5 5 5 5 4 4 4 3 4 4 4 4 3 4 4 4
5 5 5 5 5 5 5 5 5 4 3 2 1 1 0 1 1 1 0 -0 0 0 0 0 0 0 1 1 1 1 2 2 2 3 3 4 5 5 5 5 5 4 4 4 4 4 4 4 4 4 3 3 3 3
5 5 5 5 4 4 4 4 5 5 4 3 2 0 -0 -0 0 -0 -0 0 0 1 0 0 1 1 1 2 2 2 2 2 3 3 4 5 5 6 6 5 5 4 4 4 4 4 4 4 4 3 3 3 2 2
5 5 5 4 4 4 4 4 4 5 5 4 2 0 -1 -1 -0 -1 -0 0 1 1 1 1 1 1 1 2 2 2 2 3 3 4 5 5 5 6 6 5 5 4 4 4 4 4 4 3 3 3 2 2 2 2
4 4 4 4 4 4 4 4 4 4 4 4 2 1 -0 -1 -0 -0 0 0 1 1 1 1 1 1 1 1 2 2 2 2 3 3 3 4 4 5 5 5 4 3 3 3 4 4 3 3 3 2 2 2 2 2
4 4 4 4 4 3 4 4 4 4 4 4 3 1 0 0 1 1 1 1 1 1 1 1 1 1 1 1 1 1 1 1 1 2 2 2 3 3 4 4 3 3 2 3 3 3 2 2 2 2 2 2 2 2
4 4 4 3 3 3 4 4 4 4 3 3 2 1 1 1 1 2 1 1 1 1 2 2 2 1 1 1 1 0 0 1 1 1 1 2 2 2 3 3 2 2 2 2 1 1 1 2 2 2 2 2 2 1
3 4 3 3 3 3 4 4 4 4 3 2 2 2 1 1 1 1 1 0 1 2 2 3 2 2 1 0 0 0 0 0 1 1 1 1 2 2 2 2 2 1 1 1 1 1 1 1 2 2 2 1 1 2
3 3 3 3 3 3 4 4 4 3 3 2 2 2 2 2 1 1 1 1 1 2 3 3 3 2 1 0 -0 0 0 1 1 1 1 2 2 2 2 2 1 1 1 0 0 1 1 1 2 2 2 2 2 3
4 3 3 3 3 3 3 3 3 3 3 3 2 2 2 2 2 1 1 1 2 2 2 2 2 2 1 1 0 1 1 1 2 2 2 2 3 2 2 1 1 1 1 1 1 1 2 2 2 3 3 4 5 5
5 5 4 4 4 4 3 3 3 3 3 3 2 2 2 2 2 2 2 2 2 2 2 2 2 1 1 1 1 1 2 2 3 3 3 3 3 3 2 2 2 2 3 3 3 3 3 4 4 5 6 7 7 8
7 6 6 5 5 4 4 3 3 3 3 2 2 2 2 2 2 2 2 3 3 3 3 2 1 1 1 1 1 1 2 2 3 3 3 3 4 4 4 4 4 4 5 5 5 5 5 6 6 7 7 8 9 9
8 7 7 6 5 5 4 4 3 3 2 2 2 2 2 2 2 2 3 3 3 3 3 2 2 2 1 1 1 1 1 2 2 3 3 3 4 5 6 6 6 6 7 7 7 7 7 8 8 8 8 9 9 10
8 8 7 7 6 5 5 4 3 3 3 2 2 2 2 2 2 3 3 3 3 3 3 3 2 2 2 2 1 1 1 1 2 2 2 4 5 7 7 7 7 8 8 8 8 8 8 9 9 9 9 9 10 10
9 9 8 8 7 6 6 5 4 4 4 3 3 2 2 3 3 3 3 3 3 3 3 3 3 2 2 2 2 2 1 1 1 2 3 5 6 7 7 7 8 8 8 8 8 8 8 9 9 9 9 9 9 9
9 9 9 9 8 7 7 6 6 6 5 5 4 4 4 4 4 4 4 4 4 4 3 3 3 3 2 2 2 2 2 2 2 3 4 5 6 6 7 7 7 7 8 8 8 8 8 8 8 8 8 8 8 8
9 9 9 9 8 8 7 7 7 7 6 6 6 5 5 5 5 5 5 5 5 5 4 3 3 3 3 2 2 2 2 3 4 5 5 5 5 6 6 7 7 7 7 7 7 8 8 8 8 8 7 7 7 7
9 9 9 9 8 8 7 7 7 7 7 7 7 6 6 6 6 6 6 6 6 5 5 4 4 3 3 3 3 3 4 4 5 5 5 5 5 6 6 6 6 6 6 6 7 7 7 7 7 7 7 7 7 7
8 8 8 8 7 7 7 7 7 6 6 6 6 6 6 6 6 6 6 6 6 6 5 5 4 4 4 4 4 4 5 5 6 6 5 5 5 6 6 6 5 5 5 6 6 6 6 6 6 7 7 7 7 7
8 8 8 8 7 6 6 6 6 6 6 6 5 5 5 5 5 6 6 6 6 5 5 5 5 5 5 5 5 5 5 5 5 5 5 5 5 5 5 5 5 5 6 6 6 6 6 6 7 7 8 8 8 8
8 8 8 8 7 7 6 6 6 6 6 6 6 6 5 5 5 5 5 6 5 5 5 5 5 5 5 5 6 6 6 6 5 5 5 5 5 5 5 5 5 5 6 6 6 6 6 7 8 9 9 9 9 9
8 8 9 9 8 8 7 7 7 7 7 7 7 7 6 6 6 6 6 6 5 6 5 5 5 5 5 5 5 5 5 5 5 5 5 5 5 5 5 5 5 5 6 6 6 7 8 9 10 10 10 10 10 10
9 9 9 9 9 8 8 8 7 7 7 7 7 7 7 7 6 6 6 5 6 6 6 6 5 5 5 4 4 4 4 4 4 4 5 5 5 5 5 5 6 6 7 8 9 9 10 11 11 11 11 12 12 12
9 9 9 9 8 8 8 8 7 7 7 7 7 7 7 7 6 6 5 5 6 6 6 5 5 4 4 4 3 3 3 4 4 4 5 5 5 6 6 7 8 9 9 10 11 11 11 12 12 12 12 13 13 13
8 8 8 8 8 7 7 7 6 6 6 6 6 6 6 5 5 5 4 4 5 5 5 4 4 4 3 3 3 4 4 5 5 5 6 7 7 7 8 9 10 11 12 12 12 12 12 13 13 13 13 13 13 13
7 7 6 6 6 5 5 5 4 4 4 4 4 3 3 3 3 3 3 4 4 4 4 4 4 4 4 4 5 5 6 7 7 7 8 9 9 10 10 10 11 12 13 13 13 13 13 13 13 13 13 13 13 13
5 5 4 4 4 3 3 3 3 2 2 2 2 1 1 1 1 2 3 4 5 5 5 6 5 5 6 6 7 7 8 9 9 9 11 12 12 13 12 12 12 13 14 15 14 14 14 14 14 13 13 13 14 14
4 3 3 3 3 3 2 2 2 2 2 2 2 1 1 1 1 2 4 6 7 7 7 7 7 7 7 8 9 9 10 10 11 11 12 13 14 14 15 15 15 15 15 15 15 15 15 14 14 14 14 14 14 15
4 3 3 3 3 3 3 2 2 2 2 2 2 2 2 2 3 5 6 7 8 8 7 7 8 8 9 9 10 11 12 12 12 11 11 12 13 14 15 15 15 15 15 15 15 15 15 15 14 14 14 14 15 15
4 3 3 3 3 3 3 3 3 3 3 3 3 3 3 3 5 7 8 8 8 8 8 8 9 9 9 10 10 11 12 13 13 12 12 12 13 14 15 15 15 16 15 15 15 15 15 15 15 14 14 14 14 15
4 4 3 3 3 3 3 3 3 3 4 4 4 4 4 4 6 8 9 9 9 8 9 9 9 10 10 11 11 12 12 13 14 14 14 14 15 15 16 16 16 16 16 15 15 14 14 14 14 14 14 14 14 14
4 4 4 4 4 4 4 4 4 4 4 4 5 5 5 5 5 7 10 10 10 9 9 10 11 11 12 13 13 13 14 14 15 16 16 16 16 16 17 17 16 16 16 15 15 15 15 14 14 14 14 14 14 14
4 4 4 4 4 4 4 4 4 5 5 5 5 5 5 5 5 7 11 12 11 10 10 11 12 12 13 13 14 14 15 16 16 17 17 17 17 17 17 17 16 16 16 15 15 15 15 15 14 14 14 14 14 14